Regional Weather Roundup
Issued by NWS

Home | Current Version | Previous Version | Graphics & Text | Print | Product List | Glossary On
Versions: 1 2 3 4 5 6 7 8 9 10 11 12 13 14 15 16 17 18 19 20 21 22 23 24 25 26 27 28 29 30 31 32 33 34 35 36 37 38 39 40 41 42 43 44 45 46 47 48 49 50
000
ASUS43 KOAX 251810
RWRNE

WEATHER ROUNDUP FOR NEBRASKA
NATIONAL WEATHER SERVICE OMAHA NE
100 PM CDT SAT APR 25 2015

NOTES: SATELLITE DATA IS BEING USED TO AUGMENT CLOUD COVER ABOVE
       12000 FEET.
       "FAIR" INDICATES FEW OR NO CLOUDS BELOW 12,000 FEET WITH NO
       SIGNIFICANT WEATHER AND/OR OBSTRUCTIONS TO VISIBILITY.

  * THESE STATIONS DO NOT REPORT WEATHER SUCH AS RAIN...SNOW OR FOG.

NEZ001>004-019>022-054>056-251900-
NEBRASKA PANHANDLE

CITY           SKY/WX    TMP DP  RH WIND       PRES   REMARKS
SCOTTSBLUFF    SUNNY     67  41  38 VRB3      29.71F
6HR MIN TEMP:  39; 6HR MAX TEMP:  67;

ALLIANCE       SUNNY     64  44  48 VRB5      29.70F
6HR MIN TEMP:  35; 6HR MAX TEMP:  64;

CHADRON        SUNNY     61  49  64 NE15      29.70S
6HR MIN TEMP:  34; 6HR MAX TEMP:  63;

KIMBALL        SUNNY     63  38  40 CALM      29.72S
SIDNEY         SUNNY     66  43  43 NE9       29.73S
6HR MIN TEMP:  39; 6HR MAX TEMP:  66;

$$

NEZ057>060-069>072-079>082-251900-
SOUTHWEST NEBRASKA

CITY           SKY/WX    TMP DP  RH WIND       PRES   REMARKS
IMPERIAL       MOSUNNY   66  45  46 NE7       29.70F
6HR MIN TEMP:  46; 6HR MAX TEMP:  66;

LEXINGTON      MOSUNNY   63  53  70 NE12G21   29.69R
MCCOOK         MOSUNNY   68  51  54 NE9       29.68F
6HR MIN TEMP:  49; 6HR MAX TEMP:  68;

OGALLALA       MOSUNNY   66  47  50 NE7       29.71S
$$

NEZ005>010-023>029-035>040-094-251900-
NORTH CENTRAL NEBRASKA

CITY           SKY/WX    TMP DP  RH WIND       PRES   REMARKS
VALENTINE      CLOUDY    58  48  69 E9        29.73R
6HR MIN TEMP:  47; 6HR MAX TEMP:  59;

AINSWORTH      CLOUDY    58  50  73 E12       29.72S
BROKEN BOW     CLOUDY    57  51  80 NE12      29.71R
6HR MIN TEMP:  50; 6HR MAX TEMP:  60;

O`NEILL        CLOUDY    49  49  99 NE9       29.74R FOG
ORD            CLOUDY    50  47  89 NE12      29.71R FOG
6HR MIN TEMP:  50; 6HR MAX TEMP:  54;

THEDFORD       PTSUNNY   60  50  70 N5        29.72S
$$

NEZ041-046>049-061>064-073>077-083>087-251900-
SOUTH CENTRAL NEBRASKA

CITY           SKY/WX    TMP DP  RH WIND       PRES   REMARKS
GRAND ISLAND   CLOUDY    48  47  96 NE15      29.70R FOG
6HR MIN TEMP:  48; 6HR MAX TEMP:  53; 6HR PCP: TRACE;

AURORA         CLOUDY    49  49 100 NE14      29.68S FOG
HASTINGS       CLOUDY    50  48  93 N13       29.68R FOG
6HR MIN TEMP:  50; 6HR MAX TEMP:  54; 6HR PCP: TRACE;

HEBRON         CLOUDY    54  49  85 N10G18    29.65R
HOLDREGE       PTSUNNY   59  53  79 NE18      29.68R
KEARNEY *      CLOUDY    52  48  87 NE16      29.70R
YORK           CLOUDY    48  46  93 NE16      29.68S
$$

NEZ011>018-030>034-042>045-251900-
NORTHEAST NEBRASKA

CITY           SKY/WX    TMP DP  RH WIND       PRES   REMARKS
NORFOLK        CLOUDY    49  46  90 E9        29.72R FOG
6HR MIN TEMP:  47; 6HR MAX TEMP:  49; 6HR PCP: TRACE;

ALBION         CLOUDY    48  46  93 NE10      29.71S FOG
BLAIR          CLOUDY    46  44  92 N16       29.67S FOG
COLUMBUS *     CLOUDY    46  41  81 NE12      29.72R
FREMONT        CLOUDY    49  47  93 NE10G17   29.69S FOG
TEKAMAH        CLOUDY    50  46  86 NE12      29.71R
6HR MIN TEMP:  48; 6HR MAX TEMP:  50; 6HR PCP:  0.04;

WAYNE          CLOUDY    51  46  83 E14       29.74R
$$

NEZ050>053-065>068-078-088>093-251900-
SOUTHEAST NEBRASKA

CITY           SKY/WX    TMP DP  RH WIND       PRES   REMARKS
LINCOLN        CLOUDY    50  47  89 N16       29.68R
6HR MIN TEMP:  49; 6HR MAX TEMP:  53; 6HR PCP:  0.05;

OMAHA EPPLEY   LGT RAIN  48  46  93 NE16      29.68R FOG
6HR MIN TEMP:  48; 6HR MAX TEMP:  51; 6HR PCP:  0.02;

BEATRICE       CLOUDY    51  49  93 N15G23    29.64R
FALLS CITY     CLOUDY    55  52  89 N15       29.58R
6HR MIN TEMP:  54; 6HR MAX TEMP:  57; 6HR PCP:  0.04;

NEBRASKA CITY  DRIZZLE   49  49  99 N15       29.63R
PLATTSMOUTH    CLOUDY    48  45  90 N9G20     29.65R FOG
$$

NEZ044-045-051>053-067-251900-
OMAHA AREA

CITY           SKY/WX    TMP DP  RH WIND       PRES   REMARKS
OMAHA EPPLEY   LGT RAIN  48  46  93 NE16      29.68R FOG
6HR MIN TEMP:  48; 6HR MAX TEMP:  51; 6HR PCP:  0.02;

BLAIR          CLOUDY    46  44  92 N16       29.67S FOG
FREMONT        CLOUDY    49  47  93 NE10G17   29.69S FOG
MILLARD        CLOUDY    49  46  91 N8        29.67R FOG
OFFUTT AFB     LGT RAIN  48  46  93 N10       29.66R FOG
PLATTSMOUTH    CLOUDY    48  45  90 N9G20     29.65R FOG
WAHOO          CLOUDY    48  45  88 NE15      29.68R
$$



USA.gov is the U.S. government's official web portal to all federal, state and local government web resources and services.